Location: Asheville, NC
(35.6000°N, 82.5500°W)
Time: 15:29:03
(UTC-04:00)

UWE-3 - Pass Details

Date: 12 March 2018
Orbit: 585 x 685 km, 97.6° (Epoch: 25 June)

Event Time Altitude Azimuth Distance (km) Brightness Sun altitude
Rises 21:01:50 0° 194° (SSW) 2,966 ? -18.4°
Reaches altitude 10° 21:04:23 10° 207° (SSW) 2,042 ? -18.9°
Maximum altitude 21:08:06 26° 264° (W) 1,260 ? -19.6°
Drops below altitude 10° 21:11:45 10° 321° (NW) 2,002 ? -20.3°
Sets 21:14:13 0° 334° (NNW) 2,895 ? -20.8°
